STARLINK-1502, 45764

Orbit data source: Space-Track

STARLINK-1502, 45764 is a payload satellite owned by SpaceX/Seattle (US) in LEO that was launched on Sat, 13 Jun 2020 UTC via an FALCON 9 launch vehicle from the Air Force Eastern Test Range (AFETR). Payload-class satellites include a variety of spacecraft equipped with specific instruments for various scientific and technological missions. These include communications satellites like Starlink; space stations such as the ISS; scientific satellites like the Hubble; Earth observation satellites from companies like Planet Labs, Umbra, and HawkEye 360; GPS; miniature CubeSats for education and research; and military/defense satellites.

Loading next visibility...
Identifier
45764, 2020-038AL
Orbit
LEO
Country
Flag of USUS
Related business
Manufacturer
SpaceX/Seattle
Mission
Operational Commercial Communications
Bus & Motor
STARLINK, Unknown motor
Mass
260 kg wet, ~248 kg dry
Launch date (UTC)
2020-06-13 (5 years ago)
Launch vehicle
FALCON 9
Launch site
Air Force Eastern Test Range (AFETR)
Object type
Payload
Rocket body
Debris
Shape & HBR
Box + 1 Pan, 10.1 m
Radar Cross Section
13.562 m², Large (>1 m²)

Expand to show TLE details & history
Last TLE update: 1 day ago

TLE from 1 day ago
0 STARLINK-1502
1 45764U 20038AL  25312.53799773  .00004694  00000-0  33377-3 0  9991
2 45764  53.0553  40.4890 0001291  87.1782 272.9355 15.06401215298221
Epoch: 2025-11-08T12:54Z
TLE epoch observation values (Epoch: 2025-11-08T12:54:43.003Z)
Latitude
-0.00002°
Longitude
158.84363°
Altitude
548.041 km
Speed
7.589 km/s
True Right ascension
02h 41m 57s
True Declination
0° 00' 00"
Sunlit
Object was in full shadow at epoch
Visualization orbit readout
Latitude
Unknown
Longitude
Unknown
Altitude
Unknown
Speed
Unknown
Apparent Right ascension
Unknown
Apparent Declination
Unknown
Sunlit
N/A
Visualization observer readout
Local Sidereal Time
13:52:46
Azimuth
Unknown
Elevation
Unknown
Doppler factor
Unknown
Orbital elements
Apogee altitude
548.373 km
Perigee altitude
546.584 km
Semi-major axis
6,925.615 km
Eccentricity
0.00013
Inclination
53.0553°
RAAN
40.489°
Arg. of periapsis
87.1782°
True anomaly
272.92073°
Mean anomaly
272.9355°
Eccentric anomaly
272.92811°
Mean motion
3.76579 °/min
Orbital period
95.6 mins
BSTAR
0.00033377
Loading maneuver chart data...
Computing Atmospheric mass density...

Documentation

Showing up to 5 results
|